LIGHTCUBE (56314 NORAD) Tracking and Keplerian Element Data

This shows tracking and keplerian element data for the satellite.

Feedback or suggestion? Click here.




ElementValue
Catalog56314
NameLIGHTCUBE
Epoch Orbit1941
Epoch Day238.47258558
Epoch Year2023
RAAN331.4592
Inclination51.6336
Eccentricity0.0010897
Argument of Perigee335.8298
Mean Anonmoly24.2188
Mean Motion15.71883523
Decay Rate0.00156864
L11 56314U 98067VF 23238.47258558 .00156864 00000+0 11592-2 0 9990
L22 56314 51.6336 331.4592 0010897 335.8298 24.2188 15.71883523 19418



Live tracking and technical data element details for LIGHTCUBE (NORAD 56314). LIGHTCUBE can be tracked NOW for your location showing map with azimuth and elevation plus other details from your city location.







IsCatalogInMostPopularTable: catalog: 56314, numindb: 24
Update: records affected: 1



GetName: 56314 LIGHTCUBE

Hit Count: updated at: Thu, 28 Sep 2023 04:03:41 GMT